Regional Weather Roundup
Issued by NWS

Home | Current Version | Previous Version | Graphics & Text | Print | Product List | Glossary On
Versions: 1 2 3 4 5 6 7 8 9 10 11 12 13 14 15 16 17 18 19 20 21 22 23 24 25 26 27 28 29 30 31 32 33 34 35 36 37 38 39 40 41 42 43 44 45 46 47 48 49 50
000
ASUS45 KTFX 300510
RWRMT
MONTANA REGIONAL WEATHER ROUNDUP
NATIONAL WEATHER SERVICE GREAT FALLS MT
1100 PM MDT WED MAR 29 2017

NOTE: "FAIR" INDICATES FEW OR NO CLOUDS BELOW 12000 FEET WITH NO
SIGNIFICANT WEATHER AND/OR OBSTRUCTIONS TO VISIBILITY.

MTZ001>007-043-300600-
WEST OF THE DIVIDE

CITY           SKY/WX    TMP DP  RH WIND       PRES   REMARKS
KALISPELL      CLOUDY    44  41  89 S8        29.82F
MISSOULA       CLOUDY    47  40  76 SE9       29.87F
BUTTE          CLOUDY    43  36  76 W6        29.90F
MULLAN PASS    LGT RAIN  34  34 100 SW8G20    29.83S VSB 3/4 WCI  27
ANACONDA         N/A     43  36  75 S3        29.89F
DEER LODGE       N/A     43  37  81 CALM      29.88F
EUREKA           N/A     46  39  76 SE12      29.79S
HAMILTON         N/A     45  39  81 S10       29.89F
PLAINS           N/A     45  38  76 MISG      29.85F
RONAN            N/A     47  41  80 SE2       29.90F
$$

MTZ008-052>055-300600-
SOUTHWEST MONTANA

CITY           SKY/WX    TMP DP  RH WIND       PRES   REMARKS
BOZEMAN        LGT RAIN  45  41  86 NE7       29.89F
DILLON         CLOUDY    41  37  86 W7        29.89F
W YELLOWSTONE  MIX PCPN  32  32 100 SW5       29.99F
ENNIS          CLOUDY    41  37  87 S12G17    29.96F
THREE FORKS      N/A     47  -6  11 SW12      29.89F
TWIN BRIDGES     N/A     43  34  70 E3        29.90F
$$

MTZ009-010-012-014-046-048-049-054-300600-
EAST SLOPES AND CENTRAL MONTANA

CITY           SKY/WX    TMP DP  RH WIND       PRES   REMARKS
CUT BANK       CLOUDY    44  32  62 W10       29.72F
GREAT FALLS    CLOUDY    50  34  54 SW20      29.76F
MALMSTROM AFB  CLOUDY    51  36  56 SW16      29.76F
HELENA         CLOUDY    50  39  66 CALM      29.84F
AUGUSTA        MOCLDY    43  32  66 SW14      29.76F
BOWMANS CRNR     N/A     43  34  70 S12       29.78S
CHOTEAU          N/A     46  34  61 CALM      29.76F
CONRAD           N/A     45  36  70 CALM      29.78F
FAIRFIELD      MOCLDY    47  33  59 SW14      29.75S
POWER          CLOUDY    46  34  63 SW13      29.75F
RAYNESFORD     CLOUDY    52  33  49 W23       29.78F
$$

MTZ011-013-016-021-045-047-050-051-300600-
NORTH CENTRAL MONTANA

CITY           SKY/WX    TMP DP  RH WIND       PRES   REMARKS
HAVRE          CLOUDY    45  36  70 SW9       29.72S
LEWISTOWN      CLOUDY    49  35  58 SW9       29.79S
N BAR RANCH    MOCLDY    41  30  65 W6        29.82S
CHINOOK          N/A     48  36  61 E5        29.72F
DENTON         MOCLDY    51  33  52 SW12G18   29.74F
FORT BENTON      N/A     54  36  50 MISG      29.75S
GEYSER         CLOUDY    49  35  56 W17       29.75F
GRASS RANGE    MOCLDY    47  34  61 W8        29.75F
JUDITH GAP     CLOUDY    47  34  60 SW14G21   29.80F
STANFORD       MOCLDY    49  34  56 W13       29.78F
WINIFRED       MOCLDY    47  34  58 S3        29.76F
$$

MTZ017>020-022>027-061-062-300600-
NORTHEAST MONTANA

CITY           SKY/WX    TMP DP  RH WIND       PRES   REMARKS
GLASGOW        CLOUDY    47  32  56 E9        29.77F
JORDAN           N/A     48  33  56 SE5       29.77F
SIDNEY         MOCLDY    38  31  76 CALM      29.83F
WOLF POINT     CLOUDY    47  36  65 NE5       29.80F
MALTA          CLOUDY    52  32  46 SE5       29.75F
PLENTYWOOD       N/A     45  30  57 CALM      29.82S
POPLAR           N/A     46  34  61 E6        29.81F
SCOBEY           N/A     44  28  53 CALM      29.80F
$$

MTZ028>42-056>058-300600-
SOUTHCENTRAL AND SOUTHEAST MONTANA

CITY           SKY/WX    TMP DP  RH WIND       PRES   REMARKS
BAKER          CLOUDY    38  32  79 CALM      29.86F
BILLINGS       CLOUDY    52  38  58 W6        29.82F
LIVINGSTON     CLOUDY    49  32  52 W14G24    29.86F
MILES CITY     CLOUDY    49  33  54 SE6       29.81F
BIG TIMBER     CLOUDY    48  34  57 W25       29.84F
EKALAKA          N/A     45  29  53 SE6       29.85F
FORSYTH          N/A     52  32  46 SE3       29.80F
HARLOWTON      CLOUDY    47  38  71 NW15      29.82F
LAUREL           N/A     51  30  44 W1        29.83S
$$

REGIONAL REPORTS...DAKOTAS

CITY           SKY/WX    TMP DP  RH WIND       PRES   REMARKS
WILLISTON      CLOUDY    43  32  65 SW3       29.83S
MINOT          CLOUDY    47  39  74 S10       29.82F
DICKINSON      PTCLDY    38  30  73 S8        29.85S
BEACH          CLOUDY    39  30  70 S5        29.87F
TIOGA            N/A     41  32  70 CALM      29.84S
WATFORD CITY     N/A     36  32  87 CALM      29.83F
BISMARCK       CLOUDY    51  35  54 S22G30    29.93R
GRAND FORKS    PTCLDY    44  38  79 S16       29.99R
FARGO          CLEAR     44  38  79 S18       30.03F
BUFFALO SD       N/A     44  38  79 S14       29.81F
RAPID CITY     CLEAR     37  35  92 CALM      29.92F
$$

REGIONAL REPORTS...WYOMING/IDAHO/WASHINGTON

CITY           SKY/WX    TMP DP  RH WIND       PRES   REMARKS
GILLETTE       CLEAR     35  29  78 S10       29.86S WCI  27
SHERIDAN       CLOUDY    42  35  76 CALM      29.84F
BUFFALO WY     CLEAR     44  30  57 W9        29.87S
CODY           CLOUDY    49  31  49 W20G28    29.88F
YELLOWSTONE LA   N/A     31  31 100 CALM      30.01F
IDAHO FALLS    CLOUDY    48  38  68 S14       29.98F
SALMON         CLOUDY    43  43 100 CALM      29.91F
BOISE          LGT RAIN  50  47  89 SE6       29.95F
SPOKANE        LGT RAIN  47  43  86 S16       29.82S
$$

REGIONAL REPORTS...ALBERTA

CITY           SKY/WX    TMP DP  RH WIND       PRES   REMARKS
EDMONTON       MOCLDY    37  34  87 E7        29.69F
CALGARY        PTCLDY    36  27  69 NW5       29.63S
LETHBRIDGE     MOCLDY    39  30  70 S9        29.68S
MEDICINE HAT   PTCLDY    48  34  57 S8        29.66F
WATERTON GATE    N/A     45  30  57 SW13G23     N/A
MILK RIVER       N/A     43  34  70 W8          N/A
$$

REGIONAL REPORTS...SASKATCHEWAN

CITY           SKY/WX    TMP DP  RH WIND       PRES   REMARKS
SWIFT CURRENT  CLOUDY    46  30  53 S12       29.73F
REGINA         CLOUDY    41  36  81 SE2       29.77F
SASKATOON      CLOUDY    34  34 100 NE10      29.80F FOG     WCI  26
CYPRESS HILLS    N/A     43  27  52 SE7         N/A
VAL MARIE        N/A     46  30  53 SE9         N/A
ROCKGLEN         N/A     45  28  53 SW3         N/A
ASSINIBOIA       N/A     34  34 100 E7          N/A  WCI  28
$$



USA.gov is the U.S. government's official web portal to all federal, state and local government web resources and services.